LX2ZZ-13 Weather Reports


time (UTC)temp
C
wind
direction
speed
KPH
gust
KPH
rain 1hr
cm
rain 24hr
cm
rain mn
cm
humidity
%
barometer
mb
20260507111542 13 0.0 3.2 0.00 0.00 0.00 71 1015.2
20260507110539 12 0 0.0 3.2 0.00 0.00 0.00 71 1015.2
20260507105536 12 248 0.0 3.2 0.00 0.00 0.00 71 1015.2
20260507104533 12 0.0 3.2 0.00 0.00 0.00 74 1015.2
20260507103549 12 31 1.6 3.2 0.00 0.00 0.00 74 1015.2
20260507102526 11 45 1.6 3.2 0.00 0.00 0.00 75 1015.1
20260507101523 11 338 0.0 3.2 0.00 0.00 0.00 74 1015.1
20260507100521 11 36 1.6 6.4 0.00 0.00 0.00 76 1015.0
20260507095517 12 23 0.0 3.2 0.00 0.00 0.00 74 1015.0
20260507094615 11 85 0.0 3.2 0.00 0.00 0.00 77 1015.0
20260507093611 11 59 1.6 3.2 0.00 0.00 0.00 75 1014.9
20260507092608 12 45 0.0 3.2 0.00 0.00 0.00 73 1014.8
20260507091605 11 68 0.0 3.2 0.00 0.00 0.00 78 1014.7
20260507090602 11 23 1.6 6.4 0.00 0.00 0.00 75 1014.7
20260507085559 11 45 1.6 6.4 0.00 0.00 0.00 75 1014.6
20260507084556 11 45 0.0 3.2 0.00 0.00 0.00 77 1014.5
20260507083553 11 345 1.6 3.2 0.00 0.00 0.00 78 1014.4
20260507082550 10 8 1.6 6.4 0.00 0.00 0.00 78 1014.5
20260507081547 10 57 1.6 6.4 0.00 0.00 0.00 79 1014.4
20260507080543 10 54 1.6 3.2 0.00 0.00 0.00 81 1014.2
20260507075546 11 42 3.2 9.7 0.00 0.00 0.00 79 1014.2
20260507074537 10 54 3.2 9.7 0.00 0.03 0.00 81 1014.1
20260507073534 10 3 3.2 6.4 0.00 0.03 0.00 82 1013.9
20260507072551 10 319 1.6 3.2 0.00 0.03 0.00 82 1014.0
20260507071527 10 19 1.6 6.4 0.00 0.03 0.00 82 1013.8
20260507070524 10 351 1.6 3.2 0.00 0.03 0.00 83 1013.8
20260507065521 9 338 0.0 3.2 0.00 0.03 0.00 85 1013.7
20260507064518 10 269 0.0 3.2 0.00 0.03 0.00 85 1013.7
20260507063515 10 232 0.0 6.4 0.00 0.03 0.00 86 1013.5
20260507062612 9 213 0.0 6.4 0.00 0.03 0.00 88 1013.6
20260507061609 8 0 0.0 3.2 0.00 0.05 0.00 91 1013.5
20260507060606 8 214 0.0 3.2 0.00 0.10 0.00 93 1013.4
20260507055643 7 203 0.0 3.2 0.00 0.13 0.00 94 1013.4
20260507054600 7 225 0.0 3.2 0.00 0.15 0.00 94 1013.2
20260507053557 7 0.0 3.2 0.00 0.15 0.00 95 1013.1
20260507052554 7 0.0 0.0 0.00 0.15 0.00 95 1013.1
20260507051551 7 0.0 3.2 0.00 0.15 0.00 94 1013.0
20260507050607 7 0.0 3.2 0.00 0.15 0.00 94 1012.8
20260507045544 7 0.0 0.0 0.00 0.15 0.00 95 1012.6
20260507044542 7 0.0 3.2 0.00 0.15 0.00 95 1012.6
20260507043558 7 0.0 3.2 0.00 0.15 0.00 94 1012.4
20260507042534 7 270 0.0 3.2 0.00 0.18 0.00 94 1012.3
20260507041531 7 0 0.0 3.2 0.00 0.20 0.00 94 1012.2
20260507040528 7 349 0.0 3.2 0.00 0.28 0.00 94 1012.2
20260507035525 7 270 0.0 3.2 0.00 0.28 0.00 94 1012.1
20260507034542 7 214 0.0 3.2 0.00 0.28 0.00 94 1012.1
20260507033518 7 255 0.0 3.2 0.00 0.28 0.00 94 1012.1
20260507032515 6 0.0 3.2 0.00 0.28 0.00 94 1012.1
20260507031613 6 0.0 3.2 0.00 0.28 0.00 94 1011.9
20260507030609 7 203 1.6 3.2 0.00 0.28 0.00 94 1011.9
20260507025606 7 203 0.0 3.2 0.00 0.28 0.00 94 1011.8
20260507024603 7 225 0.0 3.2 0.00 0.28 0.00 94 1011.7
20260507023600 7 0.0 0.0 0.00 0.28 0.00 93 1011.7
20260507022557 7 0.0 0.0 0.00 0.28 0.00 93 1011.7
20260507021553 7 0.0 0.0 0.00 0.28 0.00 93 1011.7
20260507020551 7 0.0 0.0 0.00 0.28 0.00 93 1011.7
20260507015548 7 0.0 0.0 0.00 0.28 0.00 93 1011.7
20260507014545 7 0.0 0.0 0.00 0.28 0.00 93 1011.6
20260507013541 7 0.0 3.2 0.00 0.28 0.00 92 1011.6
20260507012538 7 0.0 0.0 0.00 0.28 0.00 92 1011.5
20260507011554 7 0.0 3.2 0.00 0.28 0.00 92 1011.5
20260507010531 7 0.0 0.0 0.00 0.28 0.00 92 1011.4
20260507005528 7 0.0 0.0 0.00 0.28 0.00 92 1011.4
20260507004525 7 0.0 3.2 0.00 0.28 0.00 92 1011.3
20260507003522 7 0.0 0.0 0.00 0.28 0.00 92 1011.2
20260507002539 7 0.0 0.0 0.00 0.28 0.00 91 1011.2
20260507001515 7 0.0 0.0 0.00 0.28 0.00 90 1011.3
20260507000653 7 225 0.0 3.2 0.00 0.28 0.00 90 1011.3
20260506235609 8 0.0 0.0 0.00 0.28 0.00 90 1011.2
20260506234606 8 0.0 0.0 0.00 0.28 0.00 89 1011.1
20260506233603 8 0.0 3.2 0.00 0.28 0.00 90 1011.2
20260506232600 8 0.0 3.2 0.00 0.28 0.00 91 1011.1
20260506231557 8 0.0 0.0 0.00 0.28 0.00 91 1011.1
20260506230554 8 0.0 0.0 0.00 0.28 0.00 91 1011.0
20260506225551 8 0.0 0.0 0.00 0.28 0.00 91 1010.9
20260506224548 8 0.0 0.0 0.00 0.28 0.00 91 1010.7
20260506223604 8 0.0 0.0 0.00 0.28 0.00 91 1010.7
20260506222542 8 0.0 3.2 0.00 0.28 0.00 90 1010.7
20260506221538 8 0.0 0.0 0.00 0.28 0.00 90 1010.5
20260506220615 8 0.0 0.0 0.00 0.28 0.00 90 1010.4
20260506215532 8 0.0 3.2 0.00 0.28 0.28 89 1010.4
20260506214609 8 203 0.0 3.2 0.00 0.28 0.28 88 1010.3
20260506213526 9 0.0 3.2 0.00 0.28 0.28 88 1010.2
20260506212523 9 241 1.6 3.2 0.00 0.28 0.28 87 1010.2
20260506211519 9 203 0.0 3.2 0.00 0.28 0.28 87 1010.0
20260506210517 9 203 0.0 3.2 0.00 0.28 0.28 87 1010.0
20260506205613 9 0.0 3.2 0.00 0.28 0.28 87 1010.0
20260506204610 9 0.0 3.2 0.00 0.28 0.28 87 1009.9
20260506203607 9 0.0 0.0 0.00 0.28 0.28 87 1009.9
20260506202604 9 0.0 0.0 0.00 0.28 0.28 85 1010.0
20260506201601 9 0.0 0.0 0.00 0.28 0.28 85 1009.8
20260506200558 9 0.0 0.0 0.00 0.30 0.28 85 1009.7
20260506195555 9 0.0 0.0 0.00 0.33 0.28 85 1009.7
20260506194552 9 0.0 0.0 0.00 0.43 0.28 85 1009.5
20260506193549 10 0.0 0.0 0.00 0.56 0.28 86 1009.3
20260506192546 10 0.0 0.0 0.00 0.69 0.28 83 1009.2
20260506191543 10 0.0 3.2 0.00 0.76 0.28 81 1009.1
20260506190539 10 45 0.0 3.2 0.00 0.84 0.28 80 1008.9
20260506185536 10 309 1.6 6.4 0.00 0.94 0.28 79 1008.8
20260506184533 10 347 1.6 6.4 0.00 0.94 0.28 79 1008.8
20260506183530 10 0.0 3.2 0.00 1.02 0.28 81 1008.7
20260506182527 10 158 0.0 3.2 0.00 1.09 0.28 81 1008.5
20260506181524 11 35 1.6 6.4 0.00 1.14 0.28 80 1008.4
20260506180521 11 296 1.6 6.4 0.00 1.22 0.28 80 1008.3
20260506175518 11 21 3.2 6.4 0.00 1.22 0.28 81 1008.2
20260506174615 11 328 1.6 6.4 0.00 1.27 0.28 81 1008.1
20260506173612 11 46 1.6 6.4 0.00 1.32 0.28 82 1008.0
20260506172609 11 2 1.6 11.3 0.00 1.35 0.28 80 1007.9
20260506171606 11 347 3.2 6.4 0.00 1.35 0.28 79 1007.8
20260506170603 11 23 3.2 11.3 0.00 1.35 0.28 80 1007.8
20260506165559 11 14 1.6 9.7 0.00 1.35 0.28 81 1007.8
20260506164557 11 358 1.6 6.4 0.00 1.35 0.28 79 1007.8
20260506163553 11 350 1.6 6.4 0.00 1.35 0.28 79 1007.8
20260506162550 11 342 0.0 3.2 0.00 1.35 0.28 81 1007.7
20260506161547 11 15 1.6 6.4 0.00 1.35 0.28 80 1007.7
20260506160544 12 22 3.2 9.7 0.00 1.35 0.28 79 1007.7
20260506155541 12 345 1.6 3.2 0.00 1.35 0.28 80 1007.8
20260506154537 11 359 1.6 6.4 0.00 1.35 0.28 82 1007.6
20260506153534 12 11 3.2 11.3 0.00 1.37 0.28 77 1007.6
20260506152531 12 58 3.2 9.7 0.00 1.37 0.28 76 1007.4
20260506151528 12 16 3.2 6.4 0.00 1.42 0.28 80 1007.3
20260506150525 12 320 1.6 11.3 0.00 1.42 0.28 80 1007.3
20260506145522 12 329 1.6 6.4 0.00 1.45 0.28 81 1007.2
20260506144559 11 349 1.6 6.4 0.00 1.45 0.28 83 1007.2
20260506143516 12 248 4.8 9.7 0.00 1.45 0.28 80 1007.1
20260506142613 12 352 1.6 3.2 0.00 1.47 0.28 82 1007.1
20260506141610 11 290 1.6 6.4 0.00 1.47 0.28 84 1007.3
20260506140607 11 321 1.6 6.4 0.00 1.50 0.28 85 1007.4
20260506135623 11 19 3.2 6.4 0.00 1.50 0.28 85 1007.4
20260506134600 11 17 3.2 6.4 0.00 1.52 0.28 85 1007.4
20260506133557 11 345 0.0 3.2 0.00 1.52 0.28 86 1007.4
20260506132554 11 342 1.6 3.2 0.00 1.55 0.28 85 1007.4
20260506131611 12 301 1.6 3.2 0.00 1.55 0.28 84 1007.2
20260506130548 12 291 1.6 6.4 0.00 1.60 0.28 83 1007.2
20260506125545 12 315 1.6 6.4 0.00 1.60 0.28 86 1007.0
20260506124601 11 318 1.6 6.4 0.00 1.63 0.28 85 1007.0
20260506123538 11 286 1.6 3.2 0.00 1.65 0.28 86 1006.9
20260506122535 12 328 1.6 3.2 0.00 1.70 0.28 85 1006.9
20260506121612 12 309 1.6 6.4 0.00 1.78 0.28 84 1006.7
20260506120529 12 5 1.6 6.4 0.00 1.80 0.28 85 1006.6
20260506115526 11 332 1.6 6.4 0.00 1.83 0.28 85 1006.6
20260506114522 12 54 1.6 6.4 0.00 1.83 0.28 86 1006.6
20260506113520 11 336 1.6 6.4 0.00 1.83 0.28 85 1006.4
20260506112517 12 339 3.2 6.4 0.00 1.83 0.28 86 1006.4